If you wish to contribute or participate in the discussions about articles you are invited to join SKYbrary as a registered user

 Actions

Mandalay International Airport

From SKYbrary Wiki

VYMD /
Revision as of 14:16, 3 October 2018 by Editor1 (talk | contribs)
Airport
ICAO: VYMD – IATA: MDL
Summary
Name Mandalay International Airport
Region Asia and Pacific
Territory Myanmar MM.gif
Location Tada-U, Mandalay Region
Serving Mandalay
Elevation 91.135 m
299 ft91.135 m
Coordinates 21° 56' 27.03" N, 96° 5' 23.54" E
Runways
Designator Length Width Surface ROPS
17/35 4268 m14,002.625 ft
61 m200.131 ft
CON yes/yes


METAR
Observation VYMD 050530Z 14007KT 6000 BKN018 FEW020CB OVC100 28/27 Q1006
Station MANDALAY
Date/Time 05 June 2020 05:30:00
Wind direction 140°
Wind speed 07 kts
Lowest cloud amount broken clouds
Temperature 28°C
Dew point 27°C
Humidity 94%
QNH 1006 hPa
Weather condition n/a

Mandalay International Airport, located 35 km18.898 nm
35,000 m
114,829.396 ft
south of Mandalay in Tada-U, Myanmar.


Climatology

Tropical Savanna climate (Köppen climate classification Aw) - monthly mean temperatures above 18°C64.4 °F
291.15 K
524.07 °R
, and a pronounced dry season. A Tropical Savanna climate has more pronounced dry seasons than a Tropical Monsoon climate.

Maps

Terrain

Loading map...

Airport Layout

Loading map...


Accidents & Serious Incidents at or in vicinity of VYMD

None on SKYbrary